{"data":{"norad_id":51882,"epoch":"2026-09-20T04:34:35.392224Z","epoch_age_seconds":78954,"freshness":"FRESH","line1":"1 51882U 22022AG  26263.19068741  .00000806  00000+0  37719-4 0  9991","line2":"2 51882  53.1591 191.2063 0001267 103.5545 256.5598 15.31707619252864","mean_motion":15.31707619,"eccentricity":0.0001267,"inclination_deg":53.1591,"raan_deg":191.2063,"arg_perigee_deg":103.5545,"mean_anomaly_deg":256.5598,"bstar":3.7719e-5,"rev_number":25286,"period_min":94.012720321919,"perigee_km":469.84953363954,"apogee_km":471.58503331497,"semimajor_km":6848.8542834773,"source":"CELESTRAK","updated_at":"2026-09-20T09:00:39.971485Z"}}